Location: *
(55.6049°S, 142.1985°W)
Time: 13:58:06
(UTC+00:00)

Cosmos 2026 Rocket - Pass Details

Date: 12 May 2021
Orbit: 940 x 1000 km, 82.9° (Epoch: 18 June)

Event Time Altitude Azimuth Distance (km) Brightness Sun altitude
Rises 14:15:12 0° 192° (SSW) 3,738 7.0 -24.8°
Reaches altitude 10° 14:17:48 10° 188° (S) 2,776 6.3 -24.5°
Maximum altitude 14:24:09 67° 105° (ESE) 1,066 4.3 -23.6°
Drops below altitude 10° 14:30:19 10° 23° (NNE) 2,705 6.6 -22.7°
Sets 14:32:49 0° 19° (NNE) 3,636 7.2 -22.4°
